STARLINK-5033

decayed
NORAD ID: 55412 Int'l Des: 2023-014 Owner: SPXS Country: US Constellation: starlink
LEOCIRCULAR

关于 STARLINK-5033

正在加载描述...

高度历史

Altitude vs Time

uPlot chart will show altitude changes over time

两行轨道根数

1 55412U 23014X 25081.49534293 .19359212 46357-5 27485-3 0 9993
2 55412 69.9824 236.6307 0004666 220.2166 203.3918 16.48868180118258
Epoch: Mar 22, 2025 • Age: 4315 hours

当前状态

Position data unavailable
发射日期 Jan 31, 2023
运行时间 2.6 years
衰减日期 Mar 22, 2025
类型 internet

技术详情

分类 Payload
质量 305.00 kg
干质量 290.00 kg
总质量 305.00 kg
长度 0.20 m
直径 2.80 m
跨度 9.00 m
形状 Box + pan
制造商 SPXS
平台类型 Starlink
阶段状态 Unknown Transfer Status
所有者/国家 SPXS/US

大型星座

Loading constellations...